| time (UTC) | temp F | wind direction | speed MPH | gust MPH | rain 1hr in | rain 24hr in | rain mn in | humidity % | barometer mb |
| 20260505075743 | 68 | 143 | 3.0 | 8.0 | 0.00 | 0.00 | 0.00 | 38 | 1017.2 |
| 20260505074742 | 68 | 140 | 3.0 | 7.0 | 0.00 | 0.00 | 0.00 | 37 | 1017.3 |
| 20260505073742 | 68 | 88 | 3.0 | 14.0 | 0.00 | 0.00 | 0.00 | 39 | 1017.2 |
| 20260505072742 | 68 | 77 | 5.0 | 9.0 | 0.00 | 0.00 | 0.00 | 38 | 1017.1 |
| 20260505071742 | 68 | 70 | 5.0 | 7.0 | 0.00 | 0.00 | 0.00 | 38 | 1017.1 |
| 20260505070742 | 68 | 196 | 3.0 | 9.0 | 0.00 | 0.00 | 0.00 | 42 | 1017.1 |
| 20260505065742 | 69 | 98 | 3.0 | 7.0 | 0.00 | 0.00 | 0.00 | 44 | 1017.2 |
| 20260505064742 | 69 | 81 | 3.0 | 6.0 | 0.00 | 0.00 | 0.00 | 43 | 1017.0 |
| 20260505062741 | 68 | 176 | 6.0 | 8.0 | 0.00 | 0.00 | 0.00 | 40 | 1016.9 |
| 20260505061741 | 69 | 237 | 5.0 | 8.0 | 0.00 | 0.00 | 0.00 | 39 | 1016.9 |
| 20260505060741 | 68 | 151 | 6.0 | 8.0 | 0.00 | 0.00 | 0.00 | 40 | 1016.9 |
| 20260505055741 | 68 | 212 | 5.0 | 9.0 | 0.00 | 0.00 | 0.00 | 39 | 1016.8 |
| 20260505054741 | 69 | 230 | 3.0 | 8.0 | 0.00 | 0.00 | 0.00 | 42 | 1016.7 |
| 20260505053741 | 68 | 171 | 6.0 | 10.0 | 0.00 | 0.00 | 0.00 | 40 | 1016.7 |
| 20260505052743 | 68 | 164 | 5.0 | 8.0 | 0.00 | 0.00 | 0.00 | 41 | 1016.7 |
| 20260505051743 | 68 | 74 | 8.0 | 14.0 | 0.00 | 0.00 | 0.00 | 39 | 1016.6 |
| 20260505050743 | 69 | 258 | 5.0 | 10.0 | 0.00 | 0.00 | 0.00 | 42 | 1016.8 |
| 20260505041742 | 69 | 133 | 5.0 | 6.0 | 0.00 | 0.00 | 0.00 | 43 | 1016.7 |
| 20260505040742 | 69 | 192 | 3.0 | 12.0 | 0.00 | 0.00 | 0.00 | 40 | 1016.7 |
| 20260505035743 | 69 | 227 | 5.0 | 8.0 | 0.00 | 0.00 | 0.00 | 43 | 1016.7 |
| 20260505034742 | 69 | 121 | 5.0 | 7.0 | 0.00 | 0.00 | 0.00 | 42 | 1016.7 |
| 20260505032741 | 69 | 140 | 2.0 | 8.0 | 0.00 | 0.00 | 0.00 | 43 | 1016.7 |
| 20260505030742 | 69 | 218 | 6.0 | 12.0 | 0.00 | 0.00 | 0.00 | 42 | 1016.7 |
| 20260505023742 | 68 | 267 | 3.0 | 7.0 | 0.00 | 0.00 | 0.00 | 42 | 1016.5 |
| 20260505022741 | 68 | 258 | 5.0 | 8.0 | 0.00 | 0.00 | 0.00 | 45 | 1016.6 |
| 20260505015741 | 68 | 106 | 3.0 | 9.0 | 0.00 | 0.00 | 0.00 | 46 | 1016.5 |
| 20260505014741 | 68 | 224 | 5.0 | 7.0 | 0.00 | 0.00 | 0.00 | 47 | 1016.4 |
| 20260505013743 | 68 | 190 | 6.0 | 8.0 | 0.00 | 0.00 | 0.00 | 47 | 1016.4 |
| 20260505012743 | 68 | 233 | 5.0 | 8.0 | 0.00 | 0.00 | 0.00 | 44 | 1016.5 |
| 20260505011743 | 68 | 156 | 6.0 | 9.0 | 0.00 | 0.00 | 0.00 | 45 | 1016.3 |
| 20260505010742 | 68 | 93 | 7.0 | 10.0 | 0.00 | 0.00 | 0.00 | 44 | 1016.4 |
| 20260505005742 | 68 | 231 | 3.0 | 6.0 | 0.00 | 0.00 | 0.00 | 44 | 1016.5 |
| 20260505004742 | 67 | 132 | 3.0 | 6.0 | 0.00 | 0.00 | 0.00 | 45 | 1016.4 |
| 20260505003742 | 66 | 238 | 5.0 | 8.0 | 0.00 | 0.00 | 0.00 | 46 | 1016.3 |
| 20260505001742 | 66 | 106 | 5.0 | 9.0 | 0.00 | 0.00 | 0.00 | 46 | 1016.3 |
| 20260505000741 | 66 | 78 | 6.0 | 9.0 | 0.00 | 0.00 | 0.00 | 45 | 1016.4 |
| 20260504235741 | 65 | 74 | 6.0 | 7.0 | 0.00 | 0.00 | 0.00 | 46 | 1016.0 |
| 20260504234741 | 65 | 88 | 6.0 | 13.0 | 0.00 | 0.00 | 0.00 | 46 | 1015.9 |
| 20260504233742 | 66 | 56 | 1.0 | 2.0 | 0.00 | 0.00 | 0.00 | 44 | 1015.8 |
| 20260504232743 | 66 | 13 | 3.0 | 5.0 | 0.00 | 0.00 | 0.00 | 43 | 1015.8 |
| 20260504231743 | 66 | 287 | 0.0 | 0.0 | 0.00 | 0.00 | 0.00 | 44 | 1015.8 |
| 20260504230742 | 65 | 195 | 0.0 | 1.0 | 0.00 | 0.00 | 0.00 | 43 | 1015.7 |
| 20260504225742 | 64 | 243 | 0.0 | 0.0 | 0.00 | 0.00 | 0.00 | 47 | 1015.5 |
| 20260504224742 | 63 | 256 | 0.0 | 1.0 | 0.00 | 0.00 | 0.00 | 48 | 1015.5 |
| 20260504223742 | 62 | 269 | 0.0 | 2.0 | 0.00 | 0.00 | 0.00 | 49 | 1015.5 |
| 20260504222742 | 62 | 264 | 1.0 | 2.0 | 0.00 | 0.00 | 0.00 | 50 | 1015.2 |
| 20260504221742 | 61 | 251 | 1.0 | 2.0 | 0.00 | 0.00 | 0.00 | 51 | 1015.1 |
| 20260504220742 | 60 | 253 | 1.0 | 2.0 | 0.00 | 0.00 | 0.00 | 52 | 1015.0 |
| 20260504215741 | 59 | 255 | 0.0 | 1.0 | 0.00 | 0.00 | 0.00 | 55 | 1014.7 |
| 20260504214742 | 58 | 271 | 0.0 | 1.0 | 0.00 | 0.00 | 0.00 | 56 | 1014.5 |
| 20260504213741 | 58 | 267 | 2.0 | 3.0 | 0.00 | 0.00 | 0.00 | 57 | 1014.3 |
| 20260504212741 | 57 | 273 | 1.0 | 3.0 | 0.00 | 0.00 | 0.00 | 57 | 1014.2 |
| 20260504211741 | 57 | 258 | 1.0 | 2.0 | 0.00 | 0.00 | 0.00 | 58 | 1014.1 |
| 20260504205743 | 56 | 260 | 1.0 | 3.0 | 0.00 | 0.00 | 0.00 | 60 | 1013.7 |
| 20260504204743 | 55 | 254 | 1.0 | 2.0 | 0.00 | 0.00 | 0.00 | 59 | 1013.3 |
| 20260504203742 | 56 | 255 | 0.0 | 1.0 | 0.00 | 0.00 | 0.00 | 61 | 1013.3 |
| 20260504202742 | 56 | 266 | 0.0 | 2.0 | 0.00 | 0.00 | 0.00 | 61 | 1013.1 |
| 20260504201742 | 56 | 249 | 0.0 | 1.0 | 0.00 | 0.00 | 0.00 | 60 | 1012.6 |
| 20260504200742 | 56 | 29 | 1.0 | 1.0 | 0.00 | 0.00 | 0.00 | 59 | 1012.4 |
| 20260504195742 | 56 | 244 | 0.0 | 1.0 | 0.00 | 0.00 | 0.00 | 60 | 1012.0 |
| 20260504194742 | 56 | 270 | 2.0 | 5.0 | 0.00 | 0.01 | 0.00 | 59 | 1011.7 |
| 20260504193742 | 56 | 267 | 3.0 | 9.0 | 0.00 | 0.01 | 0.00 | 59 | 1011.5 |
| 20260504192742 | 56 | 264 | 3.0 | 5.0 | 0.00 | 0.05 | 0.00 | 60 | 1011.4 |
| 20260504191742 | 56 | 269 | 3.0 | 7.0 | 0.00 | 0.10 | 0.00 | 60 | 1011.2 |
| 20260504190741 | 56 | 269 | 5.0 | 7.0 | 0.00 | 0.12 | 0.00 | 61 | 1011.1 |
| 20260504185741 | 56 | 264 | 5.0 | 6.0 | 0.00 | 0.15 | 0.00 | 59 | 1011.1 |
| 20260504184741 | 57 | 269 | 3.0 | 5.0 | 0.00 | 0.21 | 0.00 | 59 | 1011.1 |
| 20260504183741 | 57 | 259 | 3.0 | 6.0 | 0.00 | 0.28 | 0.00 | 59 | 1010.8 |
| 20260504182741 | 57 | 257 | 2.0 | 3.0 | 0.00 | 0.31 | 0.00 | 59 | 1010.7 |
| 20260504181743 | 57 | 275 | 2.0 | 3.0 | 0.00 | 0.31 | 0.00 | 60 | 1010.6 |
| 20260504180743 | 57 | 264 | 2.0 | 2.0 | 0.00 | 0.31 | 0.00 | 59 | 1010.4 |
| 20260504175743 | 57 | 271 | 5.0 | 8.0 | 0.00 | 0.31 | 0.00 | 58 | 1010.1 |
| 20260504173742 | 58 | 270 | 3.0 | 7.0 | 0.00 | 0.31 | 0.00 | 59 | 1010.2 |
| 20260504172742 | 58 | 278 | 3.0 | 7.0 | 0.00 | 0.31 | 0.00 | 58 | 1010.3 |
| 20260504171742 | 58 | 263 | 3.0 | 5.0 | 0.00 | 0.31 | 0.00 | 57 | 1010.0 |
| 20260504170742 | 59 | 264 | 2.0 | 5.0 | 0.00 | 0.31 | 0.00 | 57 | 1009.8 |
| 20260504150743 | 59 | 265 | 3.0 | 7.0 | 0.00 | 0.41 | 0.00 | 58 | 1008.5 |
| 20260504140742 | 60 | 277 | 5.0 | 8.0 | 0.00 | 1.23 | 0.43 | 55 | 1008.1 |
| 20260504130741 | 61 | 267 | 5.0 | 7.0 | 0.00 | 1.74 | 0.43 | 55 | 1007.6 |
| 20260504081742 | 68 | 265 | 6.0 | 7.0 | 0.00 | 2.62 | 0.43 | 50 | 1001.2 |
| 20260504080742 | 69 | 264 | 7.0 | 13.0 | 0.00 | 2.63 | 0.43 | 49 | 1000.9 |